Weather Roundup
Issued by NWS Corpus Christi, TX

Home | Current Version | Previous Version | Text Only | Print | Product List | Glossary On
Versions: 1 2 3 4 5 6 7 8 9 10 11 12 13 14 15 16 17 18 19 20 21 22 23 24 25 26 27 28 29 30 31 32 33 34 35 36 37 38 39 40 41 42 43 44 45 46 47 48 49 50
000
ASUS44 KCRP 060410
HRRCRP

SOUTH TEXAS REGIONAL WEATHER ROUNDUP
NATIONAL WEATHER SERVICE CORPUS CHRISTI TX
1100 PM CDT SUN JUL 05 2015


TXZ229>244-060500-
...CORPUS CHRISTI AREA OBSERVATIONS...

CITY           SKY/WX    TMP DP  RH WIND       PRES   REMARKS
CORPUS CHRISTI MOCLDY    82  77  84 S17G25    30.00R HX  90
NAS CORPUS CHR MOCLDY    82  79  90 S16G24    30.01R HX  92
ROCKPORT       LGT RAIN  83  78  85 S12G21    30.02S HX  93
KINGSVILLE NAS MOCLDY    82  80  94 SE16      30.00R HX  94
ALICE          CLOUDY    81  77  88 SE12      29.99R
FALFURRIAS     CLEAR     81  76  85 SE9G16    29.98S
$$

...VICTORIA AREA OBSERVATIONS...

CITY           SKY/WX    TMP DP  RH WIND       PRES   REMARKS
VICTORIA       CLOUDY    80  78  94 SE9       30.04R
BEEVILLE       MOCLDY    80  80 100 SE14G20   30.01R
PLEASANTON     CLEAR     80  74  80 SE12G18   29.99R
SAN ANTONIO    CLOUDY    82  74  76 SE15      30.01R
$$

...LAREDO AREA OBSERVATIONS...

CITY           SKY/WX    TMP DP  RH WIND       PRES   REMARKS
LAREDO         CLEAR     86  73  64 SE22G29   29.96R HX  93
COTULLA        LGT RAIN  85  72  65 SE18G26   29.96R HX  91
DEL RIO        PTCLDY    85  69  58 E10       29.91R
MCALLEN        CLEAR     83  77  82 SE16      30.00R HX  92
HEBBRONVILLE     N/A     80  73  77 SE12G18   30.00R
$$

...OTHER TEXAS OBSERVATIONS...

CITY           SKY/WX    TMP DP  RH WIND       PRES   REMARKS
BROWNSVILLE    CLEAR     81  78  91 SE14      30.02R
HOUSTON        MOCLDY    83  75  77 S7        30.06R HX  90
COL. STATION   CLEAR     81  73  76 S12       30.04R
AUSTIN         CLEAR     80  74  81 SE12      30.02R
WACO           CLEAR     82  72  71 S14       30.00R
FORT WORTH     PTCLDY    86  70  58 S14       29.97R HX  90
WICHITA FALLS  CLEAR     83  68  60 S14       29.93R
LUBBOCK        PTCLDY    81  66  60 SE14      29.97R
EL PASO        MOCLDY    86  57  37 SW15G22   30.01R
$$

...MARINE OBSERVATIONS...

STATION/POSITION TIME  SKY/WX   TEMP    WIND        PRES    VSBY  WAVE   SWELL
                                AIR SEA DIR/SP/G                  HT/PER HT/PER
                 (UTC)          (F)     (DEG/KT/KT) (MB)    (MI)  (FT/S) (FT/S)
PORT ARANSAS     0300            82 83  150/ 15/ 17 1016.5R
BUOY 90 E PORT A NOT AVBL
BUOY 45 SE BAFFI 0350            83 83  160/ 17/ 19 1016.2R         4/ 7
BUOY 200 E PT IS 0350            84 84  130/ 14/ 14 1018.6R         3/ 6   2/ 6
BUOY 15 E GALVES 0350            85 85  150/ 14/ 17 1017.8R         3/ 5   2/ 7
$$



USA.gov is the U.S. government's official web portal to all federal, state and local government web resources and services.